Weather in Guagua

Philippines     14°58′44″N   120°36′56″E
temp.,
°C
wind,
m/s
gust,
m/s
humid.,
%
clouds,
%
prec.,
mm/h
press.,
hPa
HPBL,
m
6 may, thu
thu623:00+26ne257679 0.0 1013176
02:00+25nne248163 0.0 1011177
05:00+24nne3583100 0.0 1012186
08:00+29ene6959100 0.0 10131090
11:00+35e91136100 0.0 10122027
14:00+36e9103389 0.0 10102065
17:00+32e81043100 0.0 10101136
20:00+26e267195 0.0 1012273
7 may, fri
fri723:00+25ne13789 0.0 1013138
02:00+25n1281100 0.0 101151
05:00+24nne248253 0.0 1011160
08:00+29ene586252 0.0 10131069
11:00+35e893985 0.0 10112076
14:00+36ese7837100 0.0 10092165
17:00+33ese664371 0.0 10081352
20:00+27ene126337 0.0 101139
8 may, sat
sat823:00+25nne11764 0.0 101220
02:00+25n237666 0.0 101049
05:00+24n228121 0.0 101036
08:00+30ene3458100 0.0 1011853
11:00+35ese453839 0.0 10102093
14:00+36sse653741 0.0 10071672
17:00+33sse554437 0.1 1007885
20:00+29sse3464100 0.1 1010154
9 may, sun
sun923:00+26sse1277100 0.0 101168
02:00+25e018294 0.0 100913
05:00+24n118615 0.0 100912
08:00+29e346072 0.0 1010786
11:00+35se443989 0.0 10091812
14:00+37s653280 0.0 10062125
17:00+32wsw555129 0.2 10061113
20:00+28n1369100 1.2 100996
10 may, mon
mon1023:00+26nne238088 0.8 101077
02:00+25nne118412 0.8 100832
05:00+24n11875 0.0 100911
08:00+29ene23632 0.0 1010811
11:00+34ese44403 0.0 10091974
14:00+37sse443292 0.0 10062273
17:00+32ssw45505 0.5 1007658
20:00+27wnw227171 1.0 100960